Miscellaneous Local Product
Issued by NWS North Platte, NE

Home | Current Version | Previous Version | Graphics & Text | Print | Product List | Glossary On
Versions: 1 2 3 4 5 6 7 8 9 10 11 12 13 14 15 16 17 18 19 20 21 22 23 24 25 26 27 28 29 30 31 32 33 34 35 36 37 38 39 40 41 42 43 44 45 46 47 48 49 50
301
AXUS43 KLBF 301510
MISLBF


WESTERN AND NORTH CENTRAL NEBRASKA HOURLY WEATHER ROUNDUP
NATIONAL WEATHER SERVICE NORTH PLATTE NE
1000 AM CDT SAT APR 30 2016

NOTE: "FAIR" INDICATES FEW OR NO CLOUDS BELOW 12,000 FEET WITH NO
SIGNIFICANT WEATHER AND/OR OBSTRUCTIONS TO VISIBILITY.

NOTE: STATIONS NOT REPORTING VARIABLES SUCH AS SKY/WEATHER OR
PRESSURE ARE PROVIDED BY RAWS AND APRS NETWORKS AND ARE NOT UNDER
NATIONAL WEATHER SERVICE QUALITY CONTROL.

...OBSERVATIONS IN AND NEAR THE EASTERN PANHANDLE OF NEBRASKA...

CITY           SKY/WX    TMP DP  RH WIND       PRES   REMARKS
PINE RIDGE     LGT RAIN  39  35  86 NE20G26   29.99R FOG     WCI  29
CHADRON        LGT RAIN  39  37  92 NE14G29   30.00S FOG     WCI  31
ALLIANCE       LGT SNOW  33  33 100 N24G33    29.89R VSB 1   WCI  20
SIDNEY         LGT SNOW  33  31  92 N20       29.89R VSB 3/4 WCI  21
CRESCENT LAKE    N/A     33  33 100 N13         N/A  WCI  24
BIG SPRINGS      N/A     35  34  95 N6          N/A  WCI  30
$$

...OBSERVATIONS IN NORTHERN NEBRASKA AND FAR SOUTHERN SOUTH DAKOTA...

CITY           SKY/WX    TMP DP  RH WIND       PRES   REMARKS
WINNER         CLOUDY    44  38  79 NE16G23   29.96S
VALENTINE      LGT RAIN  39  36  89 NE18G29   29.92S WCI  30
THEDFORD       LGT SNOW  34  34  99 N6        29.86R WCI  29
AINSWORTH      SNOW      33  32  98 NE14      29.90R VSB 1/2 WCI  23
O`NEILL        RAIN      41  39  93 NE22      29.85F
ORD            LGT RAIN  41  39  93 NE15      29.77S FOG
BROKEN BOW     LGT SNOW  36  34  92 N20G26    29.78S FOG     WCI  25
VALENTINE NWR    N/A     33  33  99 NE10        N/A  WCI  25
BUTTE            N/A     39  37  94 NE20G26     N/A  WCI  29
HALSEY           N/A     33  33  99 N6          N/A  WCI  27
CHAMBERS         N/A     39  38  97 N7G26       N/A  WCI  34
EWING            N/A     41  40  96 NE13G20     N/A
$$

...OBSERVATIONS IN SOUTHWEST NEBRASKA AND FAR NORTHEAST COLORADO...

CITY           SKY/WX    TMP DP  RH WIND       PRES   REMARKS
HOLYOKE        CLOUDY    37  36  93 N21       29.85R WCI  27
IMPERIAL       FLURRIES  34  32  92 N14       29.82S WCI  25
OGALLALA       LGT RAIN  35  32  91 N17       29.85S WCI  24
NORTH PLATTE   LGT SNOW  34  32  92 N16       29.81S FOG     WCI  24
MCCOOK         MIX PCPN  37  35  92 N13       29.80R FOG     WCI  29
LEXINGTON      DRIZZLE   40  38  92 N13       29.77S WCI  33
PAXTON           N/A     34  33  95 N9          N/A  WCI  27
STAPLETON        N/A     34  32  93 CALM        N/A
GOTHENBURG       N/A     36  34  91 N8          N/A  WCI  30
CALLAWAY         N/A     34  32  93 N10         N/A  WCI  26
$$

...OBSERVATIONS IN CENTRAL LINCOLN COUNTY AREA...

CITY           SKY/WX    TMP DP  RH WIND       PRES   REMARKS
N.P. AIRPORT   LGT SNOW  34  32  92 N16       29.81S FOG     WCI  24
N.P. DOWNTOWN    N/A     34  32  93 N6          N/A  WCI  29
N.P. SOUTHEAST   N/A     33  30  90 N5          N/A  WCI  28
N.P. HILLCREST   N/A     33  32  97 NE20        N/A  WCI  21
$$

...SOME OBSERVATIONS FROM AROUND THE REGION...

CITY           SKY/WX    TMP DP  RH WIND       PRES   REMARKS
DENVER         LGT SNOW  32  28  85 N16       29.92R FOG     WCI  21
LARAMIE        LGT SNOW  26  24  92 N9        29.94R FOG     WCI  17
CHEYENNE       LGT SNOW  30  27  88 N15G25    29.92S VSB 3/4 WCI  19
SCOTTSBLUFF    MIX PCPN  35  31  85 N20       29.94R WCI  24
RAPID CITY     CLOUDY    41  37  86 N15       30.08R
BISMARCK       MOSUNNY   49  37  63 E15       30.20R
PIERRE         CLOUDY    46  38  73 NE17G24   30.04R
SIOUX FALLS    LGT RAIN  43  38  82 NE20G26   29.94R
OMAHA          LGT RAIN  47  44  90 E9        29.71F
GRAND ISLAND   LGT RAIN  43  41  93 NE16      29.74R FOG
KANSAS CITY    CLOUDY    59  58  96 SE12      29.64S
WICHITA        PTSUNNY   51  44  77 W15       29.76R
OKLAHOMA CITY  MOSUNNY   56  47  71 NW12      29.81R
DALLAS         CLOUDY    62  56  80 NW15      29.78R
AMARILLO       SUNNY     47  36  65 N10       29.89R
DODGE CITY     CLOUDY    42  36  79 NW16      29.81R
HAYS           CLOUDY    46  37  71 NW15      29.76R
GOODLAND       CLOUDY    33  32  96 NW16      29.81S FOG     WCI  23
$$




USA.gov is the U.S. government's official web portal to all federal, state and local government web resources and services.